This is the latest recevied weather packets stored in our database for station/object NO9B. If no packets are shown the sender has not sent any weather packets the latest 10 day(s).
| Time | Temp. | Humidity | Pressure | Rain* | Wind** | Luminosity | Snow |
|---|---|---|---|---|---|---|---|
| 1787666578 | 21.11° C | 73% | 1021.8 hPa | 0 mm | - | 21 W/m² | - |
| 1787666277 | 21.11° C | 76% | 1021.6 hPa | 0 mm | - | 21 W/m² | - |
| 1787665972 | 20.56° C | 76% | 1021.6 hPa | 0 mm | - | 20 W/m² | - |
| 1787665667 | 20.56° C | 75% | 1021.7 hPa | 0 mm | - | 19 W/m² | - |
| 1787665367 | 20.56° C | 78% | 1021.8 hPa | 0 mm | - | 19 W/m² | - |
| 1787665064 | 20° C | 77% | 1021.7 hPa | 0 mm | - | 19 W/m² | - |
| 1787664760 | 20° C | 77% | 1021.5 hPa | 0 mm | - | 20 W/m² | - |
| 1787664459 | 19.44° C | 80% | 1021.7 hPa | 0 mm | - | 18 W/m² | - |
| 1787664155 | 19.44° C | 81% | 1021.6 hPa | 0 mm | - | 18 W/m² | - |
| 1787663854 | 18.89° C | 82% | 1021.8 hPa | 0 mm | - | 17 W/m² | - |
| 1787663550 | 18.89° C | 84% | 1021.8 hPa | 0 mm | - | 17 W/m² | - |
| 1787663245 | 18.33° C | 85% | 1021.9 hPa | 0 mm | - | 17 W/m² | - |
| 1787662942 | 18.33° C | 85% | 1021.8 hPa | 0 mm | - | 16 W/m² | - |
| 1787662641 | 17.78° C | 85% | 1021.8 hPa | 0 mm | - | 17 W/m² | - |
| 1787662336 | 17.78° C | 87% | 1021.8 hPa | 0 mm | - | 16 W/m² | - |
| 1787662032 | 17.22° C | 86% | 1021.7 hPa | 0 mm | - | 14 W/m² | - |
| 1787661729 | 17.22° C | 88% | 1021.8 hPa | 0 mm | - | 14 W/m² | - |
| 1787661427 | 16.67° C | 89% | 1021.6 hPa | 0 mm | - | 14 W/m² | - |
| 1787661126 | 16.67° C | 89% | 1021.6 hPa | 0 mm | - | 14 W/m² | - |
| 1787660825 | 16.11° C | 90% | 1021.6 hPa | 0 mm | - | 13 W/m² | - |
| 1787660521 | 16.11° C | 90% | 1021.6 hPa | 0 mm | - | 13 W/m² | - |
| 1787660221 | 15.56° C | 91% | 1021.6 hPa | 0 mm | - | 12 W/m² | - |
| 1787659916 | 15.56° C | 91% | 1021.3 hPa | 0 mm | - | 12 W/m² | - |
| 1787659613 | 15.56° C | 92% | 1021.6 hPa | 0 mm | - | 11 W/m² | - |
| 1787659309 | 15.56° C | 92% | 1021.4 hPa | 0 mm | - | 10 W/m² | - |
* Rain latest hour (hover to see other rain measurements)
** Current wind speed in m/s (hover to see current wind gust speed)